Regional Weather Roundup
Issued by NWS Newport/Morehead, NC

Home | Current Version | Previous Version | Text Only | Print | Product List | Glossary On
Versions: 1 2 3 4 5 6 7 8 9 10 11 12 13 14 15 16 17 18 19 20 21 22 23 24 25 26 27 28 29 30 31 32 33 34 35 36 37 38 39 40 41 42 43 44 45 46 47 48 49 50
000
ASUS42 KMHX 250622
RWRMHX
WEATHER ROUNDUP FOR EASTERN NORTH CAROLINA
NATIONAL WEATHER SERVICE NEWPORT/MOREHEAD CITY NC
200 AM EDT SAT OCT 25 2014

NOTE: "FAIR" INDICATES FEW OR NO CLOUDS BELOW 12,000 FEET
WITH NO SIGNIFICANT WEATHER AND/OR OBSTRUCTIONS TO VISIBILITY

NCZ015>017-031-032-045>047-102-103-250700-
NORTH COAST

CITY           SKY/WX    TMP DP  RH WIND       PRES   REMARKS
EDENTON        CLEAR     47  46  94 CALM      29.96F
ELIZABETH CITY CLEAR     53  45  74 W6        29.96S
KITTY HAWK     CLEAR     56  51  83 W3        29.94S
MANTEO         CLEAR     49  48  98 CALM      29.96S FOG

$$

NCZ045>047-081-094-103-104-250700-
CENTRAL COAST

CITY           SKY/WX    TMP DP  RH WIND       PRES   REMARKS
FRISCO         CLEAR     52  50  93 NW3       29.96S
SWANQUARTER      N/A     48 N/A N/A NW1       29.94S

$$

NCZ095-097-098-100-101-250700-
SOUTHERN COAST

CITY           SKY/WX    TMP DP  RH WIND       PRES   REMARKS
BEAUFORT       CLEAR     56  50  80 NW6       29.97F
CEDAR ISLAND     N/A     57 N/A N/A W6        30.00S
JACKSONVILLE   PTCLDY    50  48  93 CALM      29.98S
PINEY ISLAND   CLEAR     63  52  67 NW7       29.97R
WILMINGTON     MOCLDY    49  47  93 CALM      29.98F


$$

NCZ011>013-027>030-043-044-078>080-089-090>093-098-250700-
COASTAL PLAIN

CITY           SKY/WX    TMP DP  RH WIND       PRES   REMARKS
AHOSKIE        CLEAR     43  42  95 CALM      29.97S
CLINTON        PTCLDY    46  46 100 CALM      29.99S
ELIZABETHTOWN  MOCLDY    49  47  93 CALM      29.99S
GOLDSBORO      CLEAR     50  50 100 CALM      29.96S FOG
GREENVILLE     CLEAR     46  46 100 CALM      29.99S FOG
HAVELOCK       CLEAR     48  45  89 CALM      29.98F
KENANSVILLE    PTCLDY    43  42  98 CALM      29.98F
KINSTON        CLEAR     45  44  97 CALM      29.98S
NEW BERN       CLEAR     51  47  86 CALM      29.98F
RICHLANDS      PTCLDY    45  39  81 CALM      29.98F
ROCKY MOUNT    CLEAR     46  44  93 CALM      29.97F
WASHINGTON       N/A     46  45  97 CALM      29.98S VSB 1/2
WHITEVILLE     MOCLDY    51  49  93 CALM      29.98F

$$

AMZ130-135-150-152-154-156-158-170-250-252-270-ANZ085-086-088-633-658-670-250700-
MARINE OBSERVATIONS

STATION/POSITION TIME  TEMP    WIND        PRES    WAVE   SWELL
                       AIR SEA DIR/SP/G            HT/PER HT/PER
                 (UTC) (F)     (DEG/KT/KT) (MB)    (FT/S) (FT/S)
CHESAPEAKE LIGHT 0600   63     330/ 18/ 19 1014.3
64 E VA BEACH    0600   66 66  320/ 16/ 19 1013.0    4/10   2/10
DUCK             0600   59 66  290/  9/ 10 1013.4
2 E DUCK         0600                        N/A     2/11
10 NE DUCK       0600      67                N/A     3/ 7
OREGON INLET     0600   58 64  270/  5/  6 1014.3
13E OREGON INLT  0600      69                N/A     4/10   2/11
HATTERAS CG      0600   63 65  330/  6/  7 1014.9
DIAMOND BUOY     0600   65     330/ 12/ 14 1014.6    4/10   3/10
17 S OCRACOKE    0500          VRB 12/ 14  1014.6
CAPE LOOKOUT     0600   63     330/  6/  7 1014.6
BEAUFORT LAB     0600   58 67  340/  2/  3 1014.1
30 SE NEW RIVER  0600   68 74  310/ 10/ 12 1014.6    3/ 9   3/ 9
5 SE WRIGHTSVLE  0600   61 72  320/  8/ 10   N/A
225 S CAPE HAT   0531   71 77   20/  4/  8 1014.8    4/ 9   3/ 9
41 SE CHARLESTON 0600   69 78  340/  6/  8 1015.4    3/10   3/10

$$



USA.gov is the U.S. government's official web portal to all federal, state and local government web resources and services.